sat.trackr.live / text

‹ back to catalog

LUOJIA-1 01

NORAD 43485 · 2018-048B

PAYLOAD ACTIVE UNKNOWN

§ Identity

Operator
Country
PRC
Launch date
2018-06-02
Launch site
JSC
Launch vehicle
Mass (kg)
RCS (m²)

External: N2YO · Heavens-Above · Gunter

§ Orbital elements

Epoch: 2026-09-20T05:28:58.194912Z

Period
96.80 min
Inclination
97.8035°
Eccentricity
0.0009266
Mean motion
14.87562516 rev/d
Perigee alt
599.1 km
Apogee alt
612.0 km
Semi-major
6,983.7 km
B*
1.2361e-4
RAAN
339.8740°
Arg perigee
160.2386°
Mean anomaly
199.9191°
Rev number
44,834

§ Raw data

LUOJIA-1 011 43485U 18048B   26263.22845133  .00001069  00000+0  12361-3 0  99932 43485  97.8035 339.8740 0009266 160.2386 199.9191 14.87562516448348

JSON: /api/v1/satellites/43485 · /tle

For live sub-satellite position, see the globe view (requires WebGL).

§ Visibility from observer

Set your observer location to see the next 7 days of passes ≥ 10°. The values pass through the URL so the page stays shareable.

No JS? Fill the form by hand. The geolocation button needs JavaScript.

§ Radio — SatNOGS DB

ModeDescriptionDownlinkUplink
FM Mode V Downlink 148.375 MHz
GMSK Telem 437.250 MHz

2 transmitters · refreshed weekly from db.satnogs.org